• In Deutschland
  • Länderverzeichnis
  • Für 7 Tage
  • Wassertemperatur
  • Satellitenkarten
  • Wetterkarte
  • Widgets
  • user-avatar
    Anmelden

    Stündliche Wetter Melbourne

    Heute, 20 Juni, Mittwoch

    Zeit Temperatur Niederschläge Wind Luftdruck Luftfeuchtigkeit
    00:00 +7°C° 0 mm 2 m/S 769 mmHg 82%
    01:00 +7°C° 0 mm 2 m/S 769 mmHg 82%
    02:00 +7°C° 0 mm 2 m/S 769 mmHg 83%
    03:00 +7°C° 0 mm 2 m/S 769 mmHg 83%
    04:00 +7°C° 0 mm 2 m/S 769 mmHg 84%
    05:00 +7°C° 0 mm 2 m/S 769 mmHg 84%
    06:00 +7°C° 0 mm 2 m/S 769 mmHg 84%
    07:00 +7°C° 0 mm 2 m/S 769 mmHg 84%
    08:00 +8°C° 0 mm 3 m/S 769 mmHg 80%
    09:00 +9°C° 0 mm 3 m/S 770 mmHg 75%
    10:00 +10°C° 0 mm 3 m/S 770 mmHg 71%
    11:00 +11°C° 0 mm 3 m/S 769 mmHg 66%
    12:00 +12°C° 0 mm 4 m/S 769 mmHg 61%
    13:00 +13°C° 0 mm 4 m/S 769 mmHg 57%
    14:00 +13°C° 0 mm 4 m/S 768 mmHg 59%
    15:00 +13°C° 0 mm 4 m/S 768 mmHg 61%
    16:00 +12°C° 0 mm 3 m/S 768 mmHg 63%
    17:00 +11°C° 0 mm 3 m/S 768 mmHg 67%
    18:00 +10°C° 0 mm 3 m/S 768 mmHg 71%
    19:00 +9°C° 0 mm 3 m/S 769 mmHg 75%
    20:00 +9°C° 0 mm 2 m/S 769 mmHg 77%
    21:00 +9°C° 0 mm 2 m/S 769 mmHg 80%
    22:00 +8°C° 0 mm 2 m/S 769 mmHg 82%
    23:00 +8°C° 0 mm 2 m/S 769 mmHg 83%

    Morgen, 21 Juni, Donnerstag

    Zeit Temperatur Niederschläge Wind Luftdruck Luftfeuchtigkeit
    00:00 +8°C° 0 mm 2 m/S 769 mmHg 84%
    01:00 +7°C° 0 mm 2 m/S 769 mmHg 85%
    02:00 +7°C° 0 mm 2 m/S 769 mmHg 86%
    03:00 +7°C° 0 mm 2 m/S 769 mmHg 86%
    04:00 +7°C° 0 mm 2 m/S 769 mmHg 86%
    05:00 +6°C° 0 mm 2 m/S 769 mmHg 86%
    06:00 +6°C° 0 mm 2 m/S 770 mmHg 86%
    07:00 +6°C° 0 mm 2 m/S 770 mmHg 86%
    08:00 +7°C° 0 mm 2 m/S 770 mmHg 80%
    09:00 +9°C° 0 mm 2 m/S 770 mmHg 74%
    10:00 +10°C° 0 mm 2 m/S 770 mmHg 68%
    11:00 +13°C° 0 mm 2 m/S 770 mmHg 63%
    12:00 +14°C° 0 mm 2 m/S 769 mmHg 57%
    13:00 +15°C° 0 mm 2 m/S 769 mmHg 51%
    14:00 +15°C° 0 mm 1 m/S 769 mmHg 53%
    15:00 +15°C° 0 mm 1 m/S 769 mmHg 56%
    16:00 +15°C° 0 mm 1 m/S 768 mmHg 59%
    17:00 +13°C° 0 mm 1 m/S 769 mmHg 65%
    18:00 +11°C° 0 mm 1 m/S 769 mmHg 72%
    19:00 +9°C° 0 mm 1 m/S 769 mmHg 78%
    20:00 +9°C° 0 mm 1 m/S 770 mmHg 80%
    21:00 +8°C° 0 mm 2 m/S 770 mmHg 82%
    22:00 +7°C° 0 mm 2 m/S 770 mmHg 83%
    23:00 +7°C° 0 mm 2 m/S 770 mmHg 84%

    übermorgen, 22 Juni, Freitag

    Zeit Temperatur Niederschläge Wind Luftdruck Luftfeuchtigkeit
    00:00 +7°C° 0 mm 2 m/S 770 mmHg 84%
    01:00 +7°C° 0 mm 2 m/S 769 mmHg 84%
    02:00 +6°C° 0 mm 2 m/S 769 mmHg 84%
    03:00 +6°C° 0 mm 2 m/S 769 mmHg 84%
    04:00 +6°C° 0 mm 2 m/S 769 mmHg 84%
    05:00 +6°C° 0 mm 2 m/S 769 mmHg 84%
    06:00 +6°C° 0 mm 2 m/S 769 mmHg 83%
    07:00 +6°C° 0 mm 2 m/S 769 mmHg 83%
    08:00 +7°C° 0 mm 2 m/S 770 mmHg 79%
    09:00 +9°C° 0 mm 3 m/S 770 mmHg 75%
    10:00 +10°C° 0 mm 3 m/S 770 mmHg 71%
    11:00 +11°C° 0 mm 3 m/S 769 mmHg 66%
    12:00 +13°C° 0 mm 3 m/S 769 mmHg 61%
    13:00 +14°C° 0 mm 3 m/S 768 mmHg 56%
    14:00 +14°C° 0 mm 3 m/S 768 mmHg 58%
    15:00 +14°C° 0 mm 3 m/S 768 mmHg 59%
    16:00 +14°C° 0 mm 2 m/S 768 mmHg 61%
    17:00 +13°C° 0 mm 2 m/S 768 mmHg 67%
    18:00 +10°C° 0 mm 2 m/S 768 mmHg 73%
    19:00 +9°C° 0 mm 3 m/S 768 mmHg 78%
    20:00 +9°C° 0 mm 3 m/S 768 mmHg 78%
    21:00 +8°C° 0 mm 3 m/S 769 mmHg 77%
    22:00 +8°C° 0 mm 3 m/S 769 mmHg 76%
    23:00 +8°C° 0 mm 3 m/S 768 mmHg 76%

    23 Juni, Samstag

    Zeit Temperatur Niederschläge Wind Luftdruck Luftfeuchtigkeit
    00:00 +8°C° 0 mm 3 m/S 768 mmHg 76%
    01:00 +8°C° 0 mm 3 m/S 768 mmHg 76%
    02:00 +8°C° 0 mm 3 m/S 768 mmHg 76%
    03:00 +8°C° 0 mm 3 m/S 768 mmHg 76%
    04:00 +8°C° 0 mm 3 m/S 767 mmHg 76%
    05:00 +8°C° 0 mm 3 m/S 768 mmHg 78%
    06:00 +8°C° 0 mm 3 m/S 768 mmHg 79%
    07:00 +8°C° 0 mm 3 m/S 768 mmHg 81%
    08:00 +9°C° 0 mm 3 m/S 768 mmHg 78%
    09:00 +10°C° 0 mm 3 m/S 768 mmHg 76%
    10:00 +11°C° 0 mm 3 m/S 769 mmHg 73%
    11:00 +12°C° 0,1 mm 3 m/S 768 mmHg 73%
    12:00 +13°C° 0,1 mm 3 m/S 768 mmHg 73%
    13:00 +14°C° 0,1 mm 3 m/S 768 mmHg 73%
    14:00 +13°C° 0,2 mm 3 m/S 768 mmHg 78%
    15:00 +13°C° 0,2 mm 2 m/S 768 mmHg 84%
    16:00 +13°C° 0,2 mm 2 m/S 768 mmHg 89%
    17:00 +12°C° 0,1 mm 2 m/S 768 mmHg 90%
    18:00 +10°C° 0,1 mm 2 m/S 769 mmHg 92%
    19:00 +10°C° 0,1 mm 2 m/S 769 mmHg 94%
    20:00 +9°C° 0 mm 2 m/S 770 mmHg 94%
    21:00 +9°C° 0 mm 2 m/S 770 mmHg 94%
    22:00 +9°C° 0 mm 2 m/S 770 mmHg 94%
    23:00 +9°C° 0 mm 2 m/S 770 mmHg 94%

    24 Juni, Sonntag

    Zeit Temperatur Niederschläge Wind Luftdruck Luftfeuchtigkeit
    00:00 +9°C° 0 mm 2 m/S 770 mmHg 94%
    01:00 +9°C° 0 mm 2 m/S 770 mmHg 93%
    02:00 +8°C° 0 mm 2 m/S 770 mmHg 94%
    03:00 +9°C° 0 mm 1 m/S 770 mmHg 94%
    04:00 +8°C° 0 mm 1 m/S 770 mmHg 94%
    05:00 +8°C° 0 mm 1 m/S 771 mmHg 94%
    06:00 +8°C° 0 mm 1 m/S 771 mmHg 94%
    07:00 +7°C° 0 mm 1 m/S 771 mmHg 94%
    08:00 +8°C° 0 mm 1 m/S 771 mmHg 91%
    09:00 +9°C° 0 mm 1 m/S 771 mmHg 88%
    10:00 +10°C° 0 mm 1 m/S 771 mmHg 85%
    11:00 +11°C° 0 mm 1 m/S 770 mmHg 79%
    12:00 +12°C° 0 mm 1 m/S 770 mmHg 72%
    13:00 +14°C° 0 mm 1 m/S 769 mmHg 65%
    14:00 +13°C° 0 mm 1 m/S 769 mmHg 65%
    15:00 +13°C° 0 mm 1 m/S 769 mmHg 65%
    16:00 +13°C° 0 mm 1 m/S 768 mmHg 65%
    17:00 +11°C° 0 mm 1 m/S 769 mmHg 72%
    18:00 +10°C° 0 mm 1 m/S 769 mmHg 79%
    19:00 +8°C° 0 mm 1 m/S 769 mmHg 86%
    20:00 +8°C° 0 mm 1 m/S 769 mmHg 87%
    21:00 +7°C° 0 mm 1 m/S 769 mmHg 88%
    22:00 +7°C° 0 mm 1 m/S 769 mmHg 90%
    23:00 +7°C° 0 mm 1 m/S 769 mmHg 90%

    25 Juni, Montag

    Zeit Temperatur Niederschläge Wind Luftdruck Luftfeuchtigkeit
    00:00 +6°C° 0 mm 1 m/S 769 mmHg 91%
    01:00 +6°C° 0 mm 1 m/S 769 mmHg 92%
    02:00 +6°C° 0 mm 1 m/S 769 mmHg 92%
    03:00 +6°C° 0 mm 1 m/S 769 mmHg 92%
    04:00 +6°C° 0 mm 1 m/S 769 mmHg 93%
    05:00 +5°C° 0 mm 1 m/S 769 mmHg 93%
    06:00 +5°C° 0 mm 1 m/S 770 mmHg 93%
    07:00 +5°C° 0 mm 1 m/S 770 mmHg 93%
    08:00 +7°C° 0 mm 1 m/S 770 mmHg 86%
    09:00 +9°C° 0 mm 1 m/S 770 mmHg 79%
    10:00 +10°C° 0 mm 1 m/S 770 mmHg 72%
    11:00 +11°C° 0 mm 1 m/S 770 mmHg 67%
    12:00 +13°C° 0 mm 1 m/S 769 mmHg 62%
    13:00 +14°C° 0 mm 1 m/S 769 mmHg 58%
    14:00 +13°C° 0 mm 1 m/S 769 mmHg 60%
    15:00 +13°C° 0 mm 1 m/S 769 mmHg 63%
    16:00 +13°C° 0 mm 1 m/S 768 mmHg 66%
    17:00 +11°C° 0 mm 1 m/S 769 mmHg 73%
    18:00 +9°C° 0 mm 1 m/S 769 mmHg 81%
    19:00 +7°C° 0 mm 0 m/S 769 mmHg 89%
    20:00 +7°C° 0 mm 0 m/S 770 mmHg 89%
    21:00 +7°C° 0 mm 0 m/S 770 mmHg 90%
    22:00 +7°C° 0 mm 1 m/S 770 mmHg 91%
    23:00 +7°C° 0 mm 1 m/S 770 mmHg 91%
    Mehr zeigen